CZ-6A DEB

Satellite information

Favourite Embed

Satellite Type and Status

DEBRISIN ORBIT

Key statistics

Satellite CZ-6A DEB at a glance.

Uptime

334

Days in orbit

Revolutions

≈ 14.2

Per day

Orbit

LEO

Low Earth Orbit

Inclination

88.9

Latest

Satellite identification and parameters

Extended collection of information and parameters for CZ-6A DEB.

Object identification

Identified? True

Debris? True

Object name: CZ-6A DEB

International designator: 2024-140JD

Object number (NORAD): 60850

Object ID (CCSDS): 60850

Country: PEOPLES REPUBLIC OF CHINA (PRC)

Current information (Y/N): Y

RCS size: SMALL

Orbital parameters

Period: 101.145 minutes

Inclination: 88.867 deg

SMA: 7190.994 km

Apoapsis: 830.296 km

Periapsis: 795.422 km

RAAN: 308.1458 deg

Eccentricy: 0.0024248

Argument of periapsis: 201.828 deg

Mean anomaly: 158.1882 deg

Mean motion: 14.23702945 rev/day

Mean motion (dot): 0.00000346 rev/day2

B* drag term: 0.00014465 1/REarth

Two-line elements (TLE)

Creation date: July 5, 2025, 5:45 p.m.

Reference frame: TEME

Reference center: EARTH

Epoch: July 5, 2025, 9:15 a.m. UTC

TLE line 0: 0 CZ-6A DEB

TLE line 1: 1 60850U 24140JD 25186.38543628 .00000346 00000-0 14465-3 0 9997

TLE line 2: 2 60850 88.8670 308.1458 0024248 201.8280 158.1882 14.23702945 46211

Live tracking on map

Real-time ground track for satellite CZ-6A DEB.

In-orbit conjunctions

A list of the most updated potential collisions computed for object CZ-6A DEB.

Target Orbit TCA Probability of collision Miss distance Type
STELLA SSO 2025-06-23 16:51:30 0.002069973 392.0 (m) PAYLOAD
COSMOS 1275 DEB LEO 2025-03-05 21:06:57 0.0008065409 82.0 (m) DEBRIS
NOAA 16 DEB SSO 2025-02-17 14:20:11 0.0001843368 612.0 (m) DEBRIS
FENGYUN 1C DEB SSO 2025-01-23 10:40:49 0.0001265662 453.0 (m) DEBRIS
FENGYUN 1C DEB SSO 2025-01-16 15:48:53 0.001232977 359.0 (m) DEBRIS

Associated space launch

18 Low Earth Orbit communication satellites with Ku, Q and V band payloads for the G60 constellation operated by Shanghai Spacecom Satellite Technology (SSST) with funding backed by the Shanghai local government. Initial constellation will consist of 1296 satellites by 2027 with long term plans to expand it to 12000 satellites.

CZ-6A DEB was lifted into orbit during the mission ‘Long March 6A | G60 Polar Group 01’, on board a Long March 6A space rocket.

The launch took place on Aug. 6, 2024, 6:42 a.m. from Launch Complex 9A.

For more information about the launch, click the button.

Launch to space Long March 6A | G60 Polar Group 01
Long March 6A | G60 Polar Group 01

Agency: N/A

Status: Launch Successful

Launch date: Aug. 6, 2024, 6:42 a.m. UTC

Rocket: Long March 6A

Launch pad: Launch Complex 9A

Location: Taiyuan Satellite Launch Center, People's Republic of China

...

Latest news about this satellite

News about space launch
Brightness of first Chinese broadband constellation satellites alarms astronomers

The first satellites of a Chinese broadband constellation are significantly brighter than those of Western systems, posing a new challenge for astronomers.

News about space launch
Chinese rocket stage breaks up into cloud of more than 700 pieces of space debris

HELSINKI — A Chinese Long March 6A rocket’s upper stage has fragmented into a cloud of over 700 pieces of space debris, adding to concerns about long-term orbital safety. China […]

News about space launch
China's Thousand Sails Megaconstellation Kicks Off with Dangerous Debris Field

China's Thousand Sails Megaconstellation Kicks Off with Dangerous Debris Field


Newsletter sign-up

Weekly statistics, charts and insights to help you stay on top of the space industry.